Regional Weather Roundup
Issued by NWS

Home | Current Version | Previous Version | Text Only | Print | Product List | Glossary On
Versions: 1 2 3 4 5 6 7 8 9 10 11 12 13 14 15 16 17 18 19 20 21 22 23 24 25 26 27 28 29 30 31 32 33 34 35 36 37 38 39 40 41 42 43 44 45 46 47 48 49 50
000
ASUS43 KOAX 032010
RWRNE

WEATHER ROUNDUP FOR NEBRASKA
NATIONAL WEATHER SERVICE OMAHA NE
300 PM CDT THU SEP 03 2015

NOTES: SATELLITE DATA IS BEING USED TO AUGMENT CLOUD COVER ABOVE
       12000 FEET.
       "FAIR" INDICATES FEW OR NO CLOUDS BELOW 12,000 FEET WITH NO
       SIGNIFICANT WEATHER AND/OR OBSTRUCTIONS TO VISIBILITY.

  * THESE STATIONS DO NOT REPORT WEATHER SUCH AS RAIN...SNOW OR FOG.

NEZ001>004-019>022-054>056-032100-
NEBRASKA PANHANDLE

CITY           SKY/WX    TMP DP  RH WIND       PRES   REMARKS
SCOTTSBLUFF    CLOUDY    88  49  25 S6        29.88F
ALLIANCE       PTSUNNY   91  45  20 S3        29.86F
CHADRON        PTSUNNY   96  44  16 N5        29.78F HX  92
KIMBALL        CLOUDY    77  46  32 SW15      29.98R
SIDNEY         CLOUDY    89  43  20 VRB3      29.92S
$$

NEZ057>060-069>072-079>082-032100-
SOUTHWEST NEBRASKA

CITY           SKY/WX    TMP DP  RH WIND       PRES   REMARKS
NORTH PLATTE   PTSUNNY   91  69  48 SE10      29.79F HX  96
IMPERIAL       MOSUNNY   95  50  21 E5        29.81F HX  92
LEXINGTON      PTSUNNY   92  64  40 S14       29.80F HX  93
MCCOOK         MOSUNNY  100  54  21 S10G24    29.77F HX  98
OGALLALA       SUNNY     97  56  25 E7        29.81F HX  95
$$

NEZ005>010-023>029-035>040-094-032100-
NORTH CENTRAL NEBRASKA

CITY           SKY/WX    TMP DP  RH WIND       PRES   REMARKS
VALENTINE      MOSUNNY   99  44  15 SE15G21   29.77F HX  95
AINSWORTH      MOSUNNY   96  54  24 SE9       29.79F HX  94
BROKEN BOW     CLOUDY    92  63  38 S12G24    29.80F HX  93
O`NEILL        SUNNY     91  67  44 SE15      29.79F HX  94
ORD            MOSUNNY   93  64  38 SE14      29.77F HX  94
THEDFORD       PTSUNNY   98  57  25 SE8       29.80F HX  97
$$

NEZ041-046>049-061>064-073>077-083>087-032100-
SOUTH CENTRAL NEBRASKA

CITY           SKY/WX    TMP DP  RH WIND       PRES   REMARKS
GRAND ISLAND   MOSUNNY   95  64  35 SE18G24   29.80F HX  97
AURORA         MOSUNNY   91  66  43 S16       29.81F HX  93
HASTINGS       MOSUNNY   95  63  34 S18G26    29.80F HX  96
HEBRON         SUNNY     94  59  30 S16G24    29.81F HX  94
HOLDREGE       PTSUNNY   92  57  29 S14G22    29.80F HX  91
KEARNEY *      PTSUNNY   93  64  38 S16       29.80F HX  95
YORK           SUNNY     91  68  46 S14G20    29.82S HX  95
$$

NEZ011>018-030>034-042>045-032100-
NORTHEAST NEBRASKA

CITY           SKY/WX    TMP DP  RH WIND       PRES   REMARKS
NORFOLK        SUNNY     89  71  55 S14G20    29.79F HX  95
ALBION         SUNNY     87  69  53 S12G17    29.81S HX  91
BLAIR          SUNNY     88  69  53 S14       29.83F HX  92
COLUMBUS *     SUNNY     90  70  51 SE10G16   29.80F HX  95
FREMONT        SUNNY     89  69  50 S14       29.82F HX  93
TEKAMAH        SUNNY     89  73  59 S13G18    29.81F HX  97
WAYNE          SUNNY     86  74  67 SE9       29.81F HX  95
$$

NEZ050>053-065>068-078-088>093-032100-
SOUTHEAST NEBRASKA

CITY           SKY/WX    TMP DP  RH WIND       PRES   REMARKS
LINCOLN        SUNNY     94  68  42 S15       29.81F HX  98
OMAHA EPPLEY   MOSUNNY   92  70  48 S17G25    29.82F HX  97
BEATRICE       SUNNY     93  66  40 S20       29.83F HX  95
FALLS CITY     SUNNY     94  69  44 SE16      29.85F HX  99
NEBRASKA CITY  SUNNY     92  58  31 S14       29.84F HX  91
PLATTSMOUTH    SUNNY     90  68  48 S9        29.84F HX  93
$$

NEZ044-045-051>053-067-032100-
OMAHA AREA

CITY           SKY/WX    TMP DP  RH WIND       PRES   REMARKS
OMAHA EPPLEY   MOSUNNY   92  70  48 S17G25    29.82F HX  97
BLAIR          SUNNY     88  69  53 S14       29.83F HX  92
FREMONT        SUNNY     89  69  50 S14       29.82F HX  93
MILLARD        SUNNY     91  72  52 SE14      29.82F HX  98
OFFUTT AFB     SUNNY     91  71  50 SE13      29.82F HX  97
PLATTSMOUTH    SUNNY     90  68  48 S9        29.84F HX  93
WAHOO          FAIR      90  71  52 SE12      29.82F HX  96
$$



USA.gov is the U.S. government's official web portal to all federal, state and local government web resources and services.